Location: Unspecified
(41.5516°N, 88.1098°W)
Time: 22:59:45
(UTC-05:00)

Resurs 1-4 Rocket - Visible Passes

Search period start: 26 June 2016 00:00
Search period end: 06 July 2016 00:00
Orbit: 801 x 813 km, 98.4° (Epoch: 26 June)

Date Brightness Start Highest point End Pass type
(mag) Time Alt. Az. Time Alt. Az. Time Alt. Az.
26 Jun 2.9 03:16:52 10° NNE 03:22:00 46° E 03:26:23 14° S visible
27 Jun 3.7 02:52:47 10° NE 02:57:18 27° E 03:01:31 11° SSE visible
27 Jun 2.9 04:32:19 10° N 04:37:12 38° WNW 04:42:02 10° SW visible
28 Jun 4.4 02:29:14 10° NE 02:32:31 16° E 02:35:48 10° SE visible
28 Jun 2.2 04:07:32 10° N 04:12:47 62° WNW 04:17:44 11° SSW visible
29 Jun 2.2 03:42:57 10° NNE 03:48:18 80° ESE 03:52:52 14° S visible
30 Jun 2.9 03:18:34 10° NNE 03:23:42 48° E 03:27:59 14° S visible
01 Jul 3.7 02:54:27 10° NE 02:59:01 29° E 03:03:07 12° SSE visible
01 Jul 2.9 04:34:05 10° N 04:38:54 36° WNW 04:43:41 10° SW visible
02 Jul 4.3 02:30:50 10° NE 02:34:15 17° E 02:37:40 10° SE visible
02 Jul 2.3 04:09:16 10° N 04:14:30 60° WNW 04:19:20 12° SSW visible
03 Jul 2.1 03:44:39 10° NNE 03:50:00 83° ESE 03:54:27 15° SSW visible
04 Jul 2.8 03:20:16 10° NNE 03:25:25 50° E 03:29:35 15° S visible
05 Jul 3.6 02:56:07 10° NE 03:00:45 30° E 03:04:42 13° SSE visible
05 Jul 3.0 04:35:49 10° N 04:40:35 35° WNW 04:45:20 10° SW visible
